LiveATC.Net - Listen to live air traffic control over the Internet!


ICAO: KCPS  IATA: CPS   Airport: St Louis Downtown Airport
City: Cahokia/St Louis   State/Province: Illinois
Country: United States   Continent: North America
KCPS METAR Weather: KCPS 060953Z AUTO 35016G28KT 10SM CLR 28/22 A2991 RMK AO2 PK WND 36028/0946 SLP123 T02830217
KCPS Flight Activity (FlightAware)
KCPS Airport Info   (iFlightPlanner)
KCPS VFR Sectional Chart   (iFlightPlanner) 
KCPS IFR Low Altitude Chart   (iFlightPlanner) 
KCPS IFR High Altitude Chart   (iFlightPlanner) 

KCPS Del/Gnd/Twr/App
Feed Status: UP   Listeners: 0
Listen in your browser - HTML5 player (in browser, HTML5)
Click here to listen with your own player (launches your MP3 player)
Archive Access: KCPS Del/Gnd/Twr/App
FacilityFrequency
Downtown Clearance Delivery118.275
Downtown Ground121.800
Downtown Tower119.925
St. Louis Approach/Departure123.700

NOTICE

Unauthorized use prohibited. See LiveATC.net Terms of Service


Airport/ARTCC Code
Frequency Search
(e.g., 124.400, 128.75)
Site-wide search
 


Browse Feeds
Top 50 Feeds
HF Oceanic Feeds
Coverage Map
Bad Weather Areas

LiveATC FAQ
Offer LiveATC feed
Contact LiveATC.net
Press Inquiries

LiveATC on iPhone
LiveATC on Android

LiveATC Mobile
(Mobile browser)

ATC Audio Archives
Interesting Recordings

LiveATC Forums


Home Page
About LiveATC.net


Terms of Use
Privacy Policy

AIRMETs/SIGMETs

FAA Airport Status
NAS Status
Arrival Demand


Server Software By:
Icecast.org
Liquidsoap